SAR-LUPE 2

Last updated on Sat Sep 05 2026 00:03:44 GMT+0000 (Coordinated Universal Time)

1 31797U 07030A 26247.72818486 .00032575 00000+0 39210-3 0 9991 2 31797 98.1075 2.7613 0006051 169.7486 190.3893 15.60754588 69301
UTC large
Height (km)
Speed (km/s)
/
Latitude / Longitude
Inclination (degrees)
Orbital Period (minutes)
Azimuth
Elevation
Range (km)
Doppler Factor

Next 0 passes for location: London (51.5072 / 0.1276)

No passes found over London.
SAR-LUPE 2